KAITUO 1B
1 40912U 15049P   18064.10372428  .00001054  00000-0  54288-4 0  9992
2 40912  97.4509  72.9150 0016171  19.4802  24.7389 15.18485967135877
TIANWANG 1C (TW-1C)
1 40926U 15051B   18064.53561221  .00006436  00000-0  12782-3 0  9999
2 40926  97.1970 107.4095 0008778 304.0208 162.0827 15.47295332137276
TIANWANG 1B (TW-1B)
1 40927U 15051C   18064.47559164  .00006374  00000-0  13186-3 0  9996
2 40927  97.2055 107.2387 0008828 317.1923 150.1142 15.46105810137187
TIANWANG 1A (TW-1A)
1 40928U 15051D   18063.56078442 +.00002904 +00000-0 +79516-4 0  9996
2 40928 097.1973 099.5869 0011840 349.2074 164.0585 15.38064707136695
LAPAN A2
1 40931U 15052B   18063.09366034 +.00000731 +00000-0 +12686-4 0  9997
2 40931 006.0024 179.4664 0014033 321.1522 038.7639 14.76566910131449
LQSAT
1 40958U 15057A   18064.43867011  .00000019  00000-0  10763-4 0  9994
2 40958  97.9496 139.8164 0017247 313.2539  46.7229 14.73018573129574
CHUBUSAT 2
1 41338U 16012B   18063.56973776 +.00000354 +00000-0 +20974-4 0  9995
2 41338 031.0025 258.3073 0013696 117.5668 242.6360 14.99928519112115
CHUBUSAT 3
1 41339U 16012C   18064.52822881  .00000381  00000-0  23026-4 0  9994
2 41339  31.0115 250.9647 0013603 134.4255 225.7523 15.00120915112243
OUFTI-1
1 41458U 16025C   18064.15272783  .00001875  00000-0  10110-3 0  9997
2 41458  98.1511 121.4000 0172394 136.3133 225.1895 15.04313803101791
E-STAR-2
1 41459U 16025D   18064.14190521  .00001145  00000-0  63779-4 0  9996
2 41459  98.1510 121.2669 0173370 136.7011 224.7999 15.04069240101786
AAUSAT 4
1 41460U 16025E   18064.08215323  .00002226  00000-0  11869-3 0  9992
2 41460  98.1455 121.5525 0164959 133.7443 227.7584 15.05368687101825
NUSAT 1
1 41557U 16033B   18063.79337860  .00001278  00000-0  49369-4 0  9999
2 41557  97.4415 148.1928 0014472 160.6341 199.5452 15.28041435 98214
BEESAT 4
1 41619U 16040W   18063.59756470 +.00001253 +00000-0 +58258-4 0  9996
2 41619 097.4280 128.1435 0010450 231.6911 128.3386 15.21789721082183
PRATHAM
1 41783U 16059A   18064.17325787  .00000061  00000-0  21280-4 0  9997
2 41783  98.1312 127.3457 0034732  63.4705 297.0051 14.62903930 76758
ALSAT 1N
1 41789U 16059G   18064.28626223  .00000062  00000-0  20849-4 0  9995
2 41789  98.1312 128.4700 0029527  56.2034 304.1977 14.64130938 76814
NAYIF 1
1 42017U 17008BX  18063.52029097 +.00001395 +00000-0 +60388-4 0  9999
2 42017 097.4608 129.1567 0007345 040.3538 319.8243 15.24085487058123
LILACSAT-1
1 42725U 98067ME  18064.15791135  .00019172  00000-0  20002-3 0  9998
2 42725  51.6371 166.7753 0004070 206.3504 153.7284 15.64533442 44208
MAX VALIER SAT
1 42778U 17036P   18063.72196801  .00000859  00000-0  41709-4 0  9994
2 42778  97.4170 125.1105 0014355  78.3082 281.9764 15.21067204 38623
